EJU75VE LIRF-LSZH

Flight info

Callsign EJU75VE
Flight time 1h 17m
Altitude 32000
Route SOVAN DCT AMTEL DCT PEPAG DCT CANNE Z651 KELIP
Aircraft A320/M-SDE3FGHIRWY/LB1

Departure

Time 2026-02-22 04:37
Airport Rome–Fiumicino Leonardo da Vinci International Airport (LIRF)

Arrival

Time 2026-02-22 05:54
Airport Zürich Airport (LSZH)
Time Latitude Longitude Altitude Speed Heading
2026-02-22 04:11 41.79808 12.25694 16 ft 0 kts 293°
2026-02-22 04:29 41.79804 12.25705 16 ft 2 kts 292°
2026-02-22 04:29 41.79798 12.25725 17 ft 2 kts 297°
2026-02-22 04:29 41.79789 12.25745 19 ft 2 kts 318°
2026-02-22 04:29 41.79775 12.25751 16 ft 2 kts 23°
2026-02-22 04:30 41.79768 12.25747 18 ft 1 kts 26°
2026-02-22 04:32 41.79794 12.25764 17 ft 8 kts 26°
2026-02-22 04:32 41.79850 12.25803 16 ft 9 kts 34°
2026-02-22 04:33 41.79920 12.25853 17 ft 14 kts 23°
2026-02-22 04:33 41.80016 12.25912 18 ft 16 kts 24°
2026-02-22 04:33 41.80125 12.25978 18 ft 18 kts 25°
2026-02-22 04:33 41.80249 12.26056 15 ft 21 kts 25°
2026-02-22 04:34 41.80386 12.26142 16 ft 22 kts 24°
2026-02-22 04:34 41.80490 12.26178 14 ft 16 kts 351°
2026-02-22 04:34 41.80598 12.26133 18 ft 16 kts 343°
2026-02-22 04:34 41.80616 12.26125 17 ft 0 kts 343°
2026-02-22 04:35 41.80633 12.26119 18 ft 6 kts 343°
2026-02-22 04:36 41.80676 12.26101 19 ft 5 kts 342°
2026-02-22 04:36 41.80714 12.26083 19 ft 8 kts 335°
2026-02-22 04:36 41.80702 12.26012 19 ft 14 kts 251°
2026-02-22 04:36 41.80585 12.25582 15 ft 87 kts 250°
2026-02-22 04:37 41.80301 12.24553 14 ft 146 kts 250°
2026-02-22 04:37 41.79934 12.23182 487 ft 158 kts 251°
2026-02-22 04:37 41.79544 12.21799 1283 ft 160 kts 251°
2026-02-22 04:37 41.79210 12.20318 1717 ft 175 kts 269°
2026-02-22 04:38 41.79454 12.18657 2032 ft 193 kts 301°
2026-02-22 04:38 41.80277 12.17191 2540 ft 200 kts 311°
2026-02-22 04:38 41.81156 12.15723 3255 ft 202 kts 310°
2026-02-22 04:38 41.82032 12.14242 4041 ft 203 kts 311°
2026-02-22 04:39 41.82907 12.12757 4826 ft 203 kts 311°
2026-02-22 04:39 41.83799 12.11295 5604 ft 202 kts 318°
2026-02-22 04:39 41.84933 12.10213 6371 ft 203 kts 336°
2026-02-22 04:39 41.86346 12.09600 6742 ft 225 kts 345°
2026-02-22 04:40 41.87937 12.09018 7142 ft 247 kts 345°
2026-02-22 04:40 41.89641 12.08389 7885 ft 253 kts 345°
2026-02-22 04:40 41.91348 12.07755 8751 ft 256 kts 345°
2026-02-22 04:40 41.93068 12.07114 9636 ft 257 kts 345°
2026-02-22 04:41 41.94797 12.06471 10492 ft 260 kts 345°
2026-02-22 04:41 41.96629 12.06013 10862 ft 280 kts 355°
2026-02-22 04:41 41.98638 12.05811 11243 ft 296 kts 355°
2026-02-22 04:41 42.00718 12.05616 11916 ft 302 kts 356°
2026-02-22 04:42 42.02832 12.05421 12652 ft 307 kts 356°
2026-02-22 04:42 42.04974 12.05221 13375 ft 311 kts 356°
2026-02-22 04:42 42.07145 12.05014 14089 ft 315 kts 356°
2026-02-22 04:42 42.09344 12.04800 14737 ft 318 kts 356°
2026-02-22 04:43 42.11561 12.04582 15375 ft 321 kts 355°
2026-02-22 04:43 42.13798 12.04361 16026 ft 324 kts 355°
2026-02-22 04:43 42.16054 12.04142 16662 ft 327 kts 355°
2026-02-22 04:43 42.18334 12.03904 17306 ft 329 kts 352°
2026-02-22 04:44 42.20607 12.03406 17934 ft 333 kts 350°
2026-02-22 04:44 42.22900 12.02880 18547 ft 336 kts 350°
2026-02-22 04:44 42.25214 12.02351 19102 ft 339 kts 350°
2026-02-22 04:44 42.27546 12.01824 19673 ft 341 kts 350°
2026-02-22 04:45 42.29889 12.01298 20230 ft 343 kts 350°
2026-02-22 04:45 42.32246 12.00772 20805 ft 345 kts 350°
2026-02-22 04:45 42.34621 12.00241 21353 ft 347 kts 350°
2026-02-22 04:45 42.36967 11.99715 21894 ft 349 kts 350°
2026-02-22 04:46 42.39370 11.99176 22414 ft 351 kts 350°
2026-02-22 04:46 42.41784 11.98633 22952 ft 353 kts 350°
2026-02-22 04:46 42.44219 11.98086 23465 ft 355 kts 350°
2026-02-22 04:46 42.46664 11.97537 23951 ft 357 kts 350°
2026-02-22 04:47 42.49125 11.96981 24380 ft 360 kts 350°
2026-02-22 04:47 42.51597 11.96419 24787 ft 362 kts 350°
2026-02-22 04:47 42.54092 11.95850 25188 ft 364 kts 350°
2026-02-22 04:47 42.56595 11.95280 25589 ft 366 kts 350°
2026-02-22 04:48 42.59117 11.94708 25979 ft 368 kts 350°
2026-02-22 04:48 42.61655 11.94134 26380 ft 371 kts 350°
2026-02-22 04:48 42.64206 11.93557 26760 ft 373 kts 350°
2026-02-22 04:48 42.66772 11.92975 27137 ft 375 kts 349°
2026-02-22 04:49 42.68510 11.92581 27386 ft 376 kts 349°
2026-02-22 04:49 42.71099 11.91993 27761 ft 378 kts 349°
2026-02-22 04:49 42.73706 11.91399 28124 ft 381 kts 349°
2026-02-22 04:49 42.76331 11.90801 28488 ft 383 kts 349°
2026-02-22 04:50 42.78962 11.90200 28839 ft 385 kts 349°
2026-02-22 04:50 42.81615 11.89572 29207 ft 387 kts 347°
2026-02-22 04:50 42.84189 11.88508 29544 ft 389 kts 337°
2026-02-22 04:50 42.86621 11.86876 29877 ft 391 kts 332°
2026-02-22 04:51 42.89023 11.85114 30194 ft 393 kts 332°
2026-02-22 04:51 42.91442 11.83344 30480 ft 395 kts 332°
2026-02-22 04:51 42.93868 11.81574 30737 ft 397 kts 332°
2026-02-22 04:51 42.96315 11.79789 31005 ft 399 kts 332°
2026-02-22 04:52 43.01213 11.76197 31534 ft 401 kts 332°
2026-02-22 04:52 43.03666 11.74394 31891 ft 400 kts 332°
2026-02-22 04:52 43.06113 11.72596 32136 ft 399 kts 332°
2026-02-22 04:53 43.08528 11.70820 32158 ft 387 kts 332°
2026-02-22 04:53 43.13205 11.67376 32153 ft 378 kts 332°
2026-02-22 04:54 43.17831 11.63974 32160 ft 377 kts 332°
2026-02-22 04:54 43.22445 11.60547 32176 ft 377 kts 330°
2026-02-22 04:55 43.26916 11.56798 32201 ft 376 kts 328°
2026-02-22 04:55 43.31295 11.52875 32247 ft 376 kts 328°
2026-02-22 04:56 43.35693 11.48974 32286 ft 375 kts 328°
2026-02-22 04:56 43.40124 11.45102 32330 ft 375 kts 328°
2026-02-22 04:57 43.44536 11.41264 32351 ft 375 kts 328°
2026-02-22 04:57 43.48943 11.37410 32355 ft 375 kts 328°
2026-02-22 04:58 43.53338 11.33548 32354 ft 375 kts 328°
2026-02-22 04:58 43.57734 11.29687 32360 ft 374 kts 328°
2026-02-22 04:59 43.62122 11.25827 32359 ft 374 kts 328°
2026-02-22 04:59 43.66503 11.21967 32363 ft 373 kts 328°
2026-02-22 05:00 43.70867 11.18105 32359 ft 372 kts 328°
2026-02-22 05:00 43.75232 11.14240 32366 ft 372 kts 328°
2026-02-22 05:01 43.79584 11.10381 32363 ft 371 kts 328°
2026-02-22 05:01 43.83932 11.06523 32346 ft 371 kts 328°
2026-02-22 05:02 43.88266 11.02678 32347 ft 370 kts 328°
2026-02-22 05:02 43.92589 10.98826 32359 ft 368 kts 328°
2026-02-22 05:03 43.96896 10.94974 32354 ft 368 kts 328°
2026-02-22 05:03 44.01189 10.91123 32345 ft 367 kts 328°
2026-02-22 05:04 44.05472 10.87279 32338 ft 366 kts 328°
2026-02-22 05:04 44.09729 10.83468 32323 ft 365 kts 328°
2026-02-22 05:05 44.14018 10.79612 32325 ft 365 kts 329°
2026-02-22 05:05 44.18282 10.75775 32324 ft 364 kts 329°
2026-02-22 05:06 44.22524 10.71952 32321 ft 363 kts 329°
2026-02-22 05:06 44.26764 10.68123 32313 ft 362 kts 329°
2026-02-22 05:07 44.30981 10.64312 32319 ft 361 kts 329°
2026-02-22 05:07 44.35194 10.60491 32315 ft 361 kts 329°
2026-02-22 05:08 44.39401 10.56675 32320 ft 360 kts 329°
2026-02-22 05:08 44.43601 10.52858 32318 ft 360 kts 329°
2026-02-22 05:09 44.47794 10.49036 32320 ft 359 kts 329°
2026-02-22 05:09 44.51977 10.45213 32313 ft 359 kts 328°
2026-02-22 05:10 44.56153 10.41376 32310 ft 359 kts 328°
2026-02-22 05:10 44.60354 10.37523 32305 ft 358 kts 328°
2026-02-22 05:11 44.64505 10.33722 32310 ft 358 kts 329°
2026-02-22 05:11 44.68700 10.29872 32301 ft 358 kts 328°
2026-02-22 05:12 44.72869 10.26037 32304 ft 358 kts 328°
2026-02-22 05:12 44.77029 10.22202 32301 ft 358 kts 328°
2026-02-22 05:13 44.81182 10.18356 32300 ft 357 kts 328°
2026-02-22 05:13 44.85334 10.14509 32299 ft 357 kts 328°
2026-02-22 05:14 44.89484 10.10666 32306 ft 357 kts 328°
2026-02-22 05:14 44.93626 10.06812 32305 ft 356 kts 328°
2026-02-22 05:15 44.97763 10.02963 32308 ft 356 kts 328°
2026-02-22 05:15 45.01897 9.99116 32303 ft 356 kts 328°
2026-02-22 05:16 45.06026 9.95265 32308 ft 355 kts 328°
2026-02-22 05:16 45.10150 9.91407 32299 ft 355 kts 328°
2026-02-22 05:17 45.14259 9.87554 32302 ft 354 kts 328°
2026-02-22 05:17 45.18366 9.83694 32303 ft 354 kts 328°
2026-02-22 05:18 45.22467 9.79829 32305 ft 354 kts 328°
2026-02-22 05:18 45.26564 9.75969 32293 ft 354 kts 328°
2026-02-22 05:19 45.30659 9.72095 32284 ft 353 kts 328°
2026-02-22 05:19 45.34750 9.68223 32264 ft 353 kts 328°
2026-02-22 05:20 45.38841 9.64351 32253 ft 353 kts 328°
2026-02-22 05:20 45.42932 9.60477 32236 ft 353 kts 327°
2026-02-22 05:21 45.47012 9.56589 32229 ft 353 kts 327°
2026-02-22 05:21 45.51094 9.52692 32221 ft 353 kts 327°
2026-02-22 05:22 45.55174 9.48801 32224 ft 353 kts 327°
2026-02-22 05:22 45.59283 9.44875 32217 ft 353 kts 327°
2026-02-22 05:23 45.62673 9.41627 32221 ft 353 kts 327°
2026-02-22 05:23 45.66757 9.37714 32228 ft 354 kts 327°
2026-02-22 05:24 45.70845 9.33796 32247 ft 354 kts 327°
2026-02-22 05:24 45.74938 9.29866 32251 ft 354 kts 327°
2026-02-22 05:25 45.79028 9.25915 32272 ft 355 kts 327°
2026-02-22 05:25 45.83122 9.21949 32295 ft 355 kts 327°
2026-02-22 05:26 45.87226 9.17971 32295 ft 356 kts 327°
2026-02-22 05:26 45.91337 9.13996 32288 ft 357 kts 327°
2026-02-22 05:27 45.95449 9.10003 32292 ft 357 kts 327°
2026-02-22 05:27 45.99557 9.05988 32293 ft 357 kts 326°
2026-02-22 05:28 46.03603 9.01815 32295 ft 357 kts 325°
2026-02-22 05:28 46.07649 8.97555 32289 ft 358 kts 325°
2026-02-22 05:29 46.11676 8.93318 32328 ft 359 kts 325°
2026-02-22 05:29 46.15827 8.89333 32322 ft 359 kts 334°
2026-02-22 05:30 46.20638 8.87507 32333 ft 361 kts 352°
2026-02-22 05:30 46.23136 8.87148 32181 ft 359 kts 351°
2026-02-22 05:30 46.25592 8.86790 31930 ft 352 kts 351°
2026-02-22 05:30 46.28014 8.86432 31661 ft 349 kts 351°
2026-02-22 05:31 46.30411 8.86076 31371 ft 343 kts 351°
2026-02-22 05:31 46.32770 8.85722 30978 ft 338 kts 351°
2026-02-22 05:31 46.35093 8.85372 30593 ft 334 kts 351°
2026-02-22 05:31 46.37385 8.85023 30183 ft 330 kts 351°
2026-02-22 05:32 46.39648 8.84675 29802 ft 325 kts 351°
2026-02-22 05:32 46.41886 8.84334 29424 ft 320 kts 351°
2026-02-22 05:32 46.44074 8.84006 29084 ft 314 kts 351°
2026-02-22 05:32 46.46230 8.83682 28741 ft 309 kts 351°
2026-02-22 05:33 46.48348 8.83362 28402 ft 306 kts 351°
2026-02-22 05:33 46.50463 8.83044 28055 ft 304 kts 351°
2026-02-22 05:33 46.52563 8.82730 27721 ft 303 kts 351°
2026-02-22 05:33 46.54651 8.82413 27395 ft 301 kts 351°
2026-02-22 05:34 46.56704 8.82099 27041 ft 299 kts 351°
2026-02-22 05:34 46.58762 8.81782 26690 ft 298 kts 351°
2026-02-22 05:34 46.60856 8.81461 26326 ft 297 kts 351°
2026-02-22 05:34 46.62869 8.81155 25930 ft 294 kts 351°
2026-02-22 05:35 46.64913 8.80845 25428 ft 299 kts 351°
2026-02-22 05:35 46.67018 8.80524 25103 ft 307 kts 351°
2026-02-22 05:35 46.69147 8.80202 24687 ft 306 kts 351°
2026-02-22 05:35 46.71255 8.79883 24266 ft 305 kts 351°
2026-02-22 05:36 46.73373 8.79562 23822 ft 305 kts 351°
2026-02-22 05:36 46.75479 8.79242 23351 ft 304 kts 351°
2026-02-22 05:36 46.77574 8.78927 22942 ft 302 kts 351°
2026-02-22 05:36 46.79664 8.78608 22514 ft 301 kts 351°
2026-02-22 05:37 46.81736 8.78289 22121 ft 299 kts 351°
2026-02-22 05:37 46.83807 8.77967 21704 ft 299 kts 351°
2026-02-22 05:37 46.85882 8.77649 21307 ft 300 kts 351°
2026-02-22 05:37 46.87962 8.77334 20904 ft 299 kts 351°
2026-02-22 05:38 46.90033 8.77021 20507 ft 299 kts 351°
2026-02-22 05:38 46.92104 8.76703 20108 ft 300 kts 351°
2026-02-22 05:38 46.94181 8.76381 19699 ft 301 kts 350°
2026-02-22 05:38 46.96267 8.76061 19304 ft 301 kts 350°
2026-02-22 05:39 46.98354 8.75736 18893 ft 302 kts 350°
2026-02-22 05:39 47.00444 8.75409 18472 ft 302 kts 350°
2026-02-22 05:39 47.02530 8.75081 18055 ft 301 kts 350°
2026-02-22 05:39 47.04607 8.74753 17665 ft 299 kts 349°
2026-02-22 05:40 47.06703 8.74419 17276 ft 298 kts 349°
2026-02-22 05:40 47.08744 8.74004 16902 ft 295 kts 347°
2026-02-22 05:40 47.10770 8.73488 16520 ft 296 kts 345°
2026-02-22 05:40 47.12788 8.72933 16148 ft 295 kts 345°
2026-02-22 05:41 47.14798 8.72372 15778 ft 294 kts 345°
2026-02-22 05:41 47.16808 8.71815 15409 ft 294 kts 345°
2026-02-22 05:41 47.18819 8.71264 15041 ft 294 kts 345°
2026-02-22 05:41 47.20826 8.70723 14680 ft 294 kts 345°
2026-02-22 05:42 47.22836 8.70186 14325 ft 293 kts 345°
2026-02-22 05:42 47.26832 8.69037 13552 ft 289 kts 338°
2026-02-22 05:42 47.28665 8.67915 13106 ft 286 kts 331°
2026-02-22 05:43 47.30499 8.66649 12485 ft 293 kts 332°
2026-02-22 05:43 47.32340 8.65385 12092 ft 292 kts 332°
2026-02-22 05:43 47.34177 8.64131 11717 ft 289 kts 332°
2026-02-22 05:43 47.36004 8.62888 11350 ft 288 kts 332°
2026-02-22 05:44 47.37773 8.61582 10969 ft 284 kts 326°
2026-02-22 05:44 47.39472 8.60074 10589 ft 283 kts 326°
2026-02-22 05:44 47.41155 8.58587 10194 ft 282 kts 326°
2026-02-22 05:44 47.42834 8.57108 9852 ft 278 kts 326°
2026-02-22 05:45 47.44470 8.55670 9647 ft 271 kts 326°
2026-02-22 05:45 47.46083 8.54237 9222 ft 270 kts 323°
2026-02-22 05:45 47.47325 8.52291 8999 ft 255 kts 292°
2026-02-22 05:45 47.47865 8.49803 8496 ft 258 kts 288°
2026-02-22 05:46 47.48861 8.47625 8076 ft 262 kts 320°
2026-02-22 05:46 47.50559 8.46649 7745 ft 266 kts 347°
2026-02-22 05:46 47.52363 8.46178 7427 ft 262 kts 345°
2026-02-22 05:46 47.54136 8.45613 7058 ft 260 kts 343°
2026-02-22 05:47 47.55897 8.45011 6648 ft 259 kts 342°
2026-02-22 05:47 47.57650 8.44403 6255 ft 259 kts 342°
2026-02-22 05:47 47.59404 8.43805 5849 ft 258 kts 342°
2026-02-22 05:47 47.61152 8.43217 5461 ft 257 kts 342°
2026-02-22 05:48 47.62905 8.42633 5065 ft 259 kts 342°
2026-02-22 05:48 47.64617 8.42067 4993 ft 244 kts 339°
2026-02-22 05:48 47.66022 8.41008 4993 ft 214 kts 311°
2026-02-22 05:48 47.66803 8.39298 4993 ft 192 kts 286°
2026-02-22 05:49 47.66970 8.37422 4987 ft 180 kts 263°
2026-02-22 05:49 47.66598 8.35669 4991 ft 180 kts 242°
2026-02-22 05:49 47.65752 8.34285 4999 ft 186 kts 219°
2026-02-22 05:49 47.64542 8.33537 4978 ft 195 kts 195°
2026-02-22 05:50 47.63171 8.33673 4817 ft 204 kts 167°
2026-02-22 05:50 47.61929 8.34768 4747 ft 213 kts 143°
2026-02-22 05:50 47.60837 8.36270 4712 ft 214 kts 142°
2026-02-22 05:50 47.59745 8.37786 4570 ft 216 kts 142°
2026-02-22 05:51 47.58655 8.39288 4299 ft 219 kts 142°
2026-02-22 05:51 47.57534 8.40828 4017 ft 221 kts 142°
2026-02-22 05:51 47.56403 8.42381 3717 ft 223 kts 142°
2026-02-22 05:51 47.55281 8.43922 3413 ft 218 kts 142°
2026-02-22 05:52 47.54197 8.45414 3134 ft 204 kts 141°
2026-02-22 05:52 47.53187 8.46801 2862 ft 184 kts 142°
2026-02-22 05:52 47.52297 8.48019 2603 ft 171 kts 141°
2026-02-22 05:52 47.51441 8.49188 2361 ft 161 kts 140°
2026-02-22 05:53 47.50654 8.50264 2121 ft 152 kts 140°
2026-02-22 05:53 47.49897 8.51299 1903 ft 145 kts 139°
2026-02-22 05:53 47.49155 8.52312 1707 ft 142 kts 139°
2026-02-22 05:53 47.48431 8.53300 1503 ft 141 kts 139°
2026-02-22 05:54 47.47731 8.54250 1397 ft 122 kts 136°
2026-02-22 05:54 47.47240 8.54932 1402 ft 72 kts 138°
2026-02-22 05:54 47.46947 8.55329 1401 ft 50 kts 137°
2026-02-22 05:54 47.46753 8.55581 1402 ft 27 kts 150°
2026-02-22 05:55 47.46580 8.55684 1407 ft 26 kts 168°
2026-02-22 05:55 47.46517 8.55704 1403 ft 0 kts 167°
2026-02-22 05:56 47.46490 8.55713 1403 ft 9 kts 167°
2026-02-22 05:56 47.46401 8.55747 1401 ft 15 kts 159°
2026-02-22 05:56 47.46314 8.55850 1402 ft 17 kts 136°
2026-02-22 05:56 47.46219 8.55980 1402 ft 15 kts 137°
2026-02-22 05:57 47.46119 8.55995 1400 ft 16 kts 186°
2026-02-22 05:57 47.46001 8.55978 1401 ft 18 kts 184°
2026-02-22 05:57 47.45871 8.55920 1408 ft 22 kts 200°
2026-02-22 05:57 47.45715 8.55868 1401 ft 24 kts 186°
2026-02-22 05:58 47.45553 8.55842 1399 ft 10 kts 184°
2026-02-22 05:58 47.45474 8.55811 1397 ft 13 kts 187°
2026-02-22 05:58 47.45426 8.55803 1397 ft 0 kts 186°